Regional Weather Roundup
Issued by NWS

Home | Current Version | Previous Version | Text Only | Print | Product List | Glossary Off
Versions: 1 2 3 4 5 6 7 8 9 10 11 12 13 14 15 16 17 18 19 20 21 22 23 24 25 26 27 28 29 30 31 32 33 34 35 36 37 38 39 40 41 42 43 44 45 46 47 48 49 50

000
ASUS43 KFSD 231002
RWRSD

WEATHER ROUNDUP FOR SOUTH DAKOTA
NATIONAL WEATHER SERVICE SIOUX FALLS SD
500 AM CDT WED APR 23 2014

NOTE: "FAIR" INDICATES FEW OR NO CLOUDS BELOW 12,000 FEET WITH NO
SIGNIFICANT WEATHER AND/OR OBSTRUCTIONS TO VISIBILITY.


SDZ001>005-009-010-012>017-231100-
NORTHWEST AND NORTH CENTRAL SOUTH DAKOTA

CITY           SKY/WX    TMP DP  RH WIND       PRES   REMARKS
MOBRIDGE       CLOUDY    55  34  45 SE21G28   29.60R
$$

SDZ012>016-024>037-041>051-057-063-072>074-231100-
SOUTHWEST AND SOUTH CENTRAL SOUTH DAKOTA

CITY           SKY/WX    TMP DP  RH WIND       PRES   REMARKS
RAPID CTY ARPT CLOUDY    53  42  66 S9        29.45F
PIERRE         CLOUDY    57  33  40 SE22G33   29.56R
CUSTER         MOCLDY    45  38  76 W3        29.54F
ELLSWORTH AFB  CLOUDY    56  42  57 S12       29.44F
PHILIP         CLOUDY    57  36  45 SE9       29.48S
PINE RIDGE     CLOUDY    60  47  61 S25G40    29.45F
WINNER         FAIR      57  32  38 SE22G29   29.61F
$$

SDZ004>011-016>023-039-040-231100-
NORTHEAST SOUTH DAKOTA

CITY           SKY/WX    TMP DP  RH WIND       PRES   REMARKS
ABERDEEN       CLOUDY    51  37  58 E23G32    29.76S
WATERTOWN      LGT RAIN  48  36  63 SE15G26   29.86F
SISSETON         N/A     44  40  85 S15       29.92F
$$

SDZ017-020-022-023-036>040-048>070-231100-
SOUTHEAST SOUTH DAKOTA

CITY           SKY/WX    TMP DP  RH WIND       PRES   REMARKS
SIOUX FALLS    LGT RAIN  52  36  54 SE20G29   29.91R
HURON          CLOUDY    53  35  50 SE20G40   29.72F
CHAMBERLAIN      N/A     56  33  42 SE26G39   29.64F
MITCHELL       CLOUDY    53  36  52 SE31G40   29.77F
YANKTON        CLOUDY    54  30  40 SE18G24   29.84S
$$

ABBREVIATIONS USED IN REMARKS
   TC - TEMPERATURE IN CELSIUS
  WCI - WIND CHILL INDEX
   HX - HEAT INDEX
  VSB - VISIBILITY




USA.gov is the U.S. government's official web portal to all federal, state and local government web resources and services.